DW8626 Madrid ES current weather conditions

sailwx.info

Wind from 355 at 3 knots gusting 6

Air temperature 20.6° C
Dewpoint 6.5° C

Last reported at 2014-Oct-23 20:42 UTC.
Time now 2014-Oct-23 21:24 UTC

Location: N 40°29' W 003°43'.
View on Google Maps.

See reports from other nearby stations

  
Tides and Currents Weather Stations Pressure Air Temp Water Temp Dewpoint Dewpoint Depression Visibility Wind Speed Wind Dir Waves Ship Positions
date/time (UTC)wind fromknots sea level pressurealtimeterstation pressurevisibilityair tempwater tempwave heightnotes
2014-Oct-23 20:42 355 3 gusting 6 20.6
2014-Oct-23 20:27 019 4 gusting 7 20.6
2014-Oct-23 20:12 005 5 gusting 6 20.6
2014-Oct-23 19:57 006 3 gusting 5 20.6
2014-Oct-23 19:42 013 1 gusting 6 21.1
2014-Oct-23 19:27 344 2 gusting 7 21.1
2014-Oct-23 19:12 324 5 gusting 8 21.1
2014-Oct-23 18:57 345 5 gusting 9 21.1
2014-Oct-23 18:27 023 5 gusting 9 21.7
2014-Oct-23 18:12 032 6 gusting 8 21.7
2014-Oct-23 17:57 349 5 gusting 8 21.7
2014-Oct-23 17:42 019 5 gusting 7 21.7
2014-Oct-23 17:27 032 2 gusting 5 22.2
2014-Oct-23 17:12 030 0 gusting 6 22.8
2014-Oct-23 16:57 011 4 gusting 6 22.8
2014-Oct-23 16:42 015 5 gusting 12 23.3
2014-Oct-23 16:27 039 11 gusting 13 23.9
2014-Oct-23 16:12 331 8 gusting 13 23.9
2014-Oct-23 15:57 018 6 gusting 14 23.9
2014-Oct-23 15:42 257 24.4
2014-Oct-23 15:27 263 25.0
2014-Oct-23 15:12 191 0 gusting 2 25.0
2014-Oct-23 14:57 188 0 gusting 1 25.0
2014-Oct-23 14:42 138 25.0
2014-Oct-23 14:27 153 25.0
2014-Oct-23 14:12 124 24.4
2014-Oct-23 13:57 191 0 gusting 2 23.9
2014-Oct-23 13:42 268 1 gusting 4 23.9
2014-Oct-23 13:27 246 0 gusting 3 23.9
2014-Oct-23 13:12 298 23.9
2014-Oct-23 12:57 291 0 gusting 2 23.9
2014-Oct-23 12:42 138 23.9
2014-Oct-23 12:27 226 0 gusting 1 23.9
2014-Oct-23 12:12 148 23.3
2014-Oct-23 11:57 354 22.8
2014-Oct-23 11:42 131 22.2
2014-Oct-23 11:27 291 21.1
2014-Oct-23 11:12 337 21.1
2014-Oct-23 10:57 293 20.0
2014-Oct-23 10:42 287 20.0
2014-Oct-23 10:27 287 18.9
2014-Oct-23 10:12 293 19.4
2014-Oct-23 09:57 287 18.9
2014-Oct-23 09:42 337 17.8
2014-Oct-23 09:27 356 17.2
2014-Oct-23 09:12 293 16.7
2014-Oct-23 08:57 252 15.6
2014-Oct-23 08:42 253 15.6
2014-Oct-23 08:27 335 14.4
2014-Oct-23 08:12 356 14.4
2014-Oct-23 07:57 020 13.9
2014-Oct-23 07:42 019 13.3
2014-Oct-23 07:27 019 12.2
2014-Oct-23 07:12 345 12.2
2014-Oct-23 06:57 307 11.1
2014-Oct-23 06:42 030 11.1
2014-Oct-23 06:28 113 11.1
2014-Oct-23 06:13 113 11.7
2014-Oct-23 05:58 025 11.7
2014-Oct-23 05:42 304 11.1
2014-Oct-23 05:28 255 11.1
2014-Oct-23 05:13 253 10.6
2014-Oct-23 04:57 177 11.7
2014-Oct-23 04:42 128 12.2
2014-Oct-23 04:27 353 12.2
2014-Oct-23 04:12 311 11.7
2014-Oct-23 03:58 200 11.1
2014-Oct-23 03:43 012 12.8
2014-Oct-23 03:28 349 12.8
2014-Oct-23 03:12 019 12.2
2014-Oct-23 02:57 021 11.7
2014-Oct-23 02:42 178 12.2
2014-Oct-23 02:27 349 12.8
2014-Oct-23 02:12 285 12.8
2014-Oct-23 01:57 351 13.9
2014-Oct-23 01:42 322 13.3
2014-Oct-23 01:30 309 14.4
2014-Oct-23 01:14 084 15.0
2014-Oct-23 00:58 059 15.0
2014-Oct-23 00:43 047 15.0
2014-Oct-23 00:28 068 0 gusting 2 15.0
2014-Oct-23 00:13 113 15.6
2014-Oct-22 23:58 128 15.6
2014-Oct-22 23:43 121 15.6
2014-Oct-22 23:28 070 0 gusting 3 15.6
2014-Oct-22 23:13 055 15.6
2014-Oct-22 23:00 023 15.6
2014-Oct-22 22:44 058 15.6
2014-Oct-22 22:28 070 16.1
2014-Oct-22 22:13 095 16.7
2014-Oct-22 21:58 160 16.1
2014-Oct-22 21:43 018 17.2
2014-Oct-22 21:28 321 17.8
2014-Oct-22 21:13 169 0 gusting 3 18.3
2014-Oct-22 20:57 047 1 gusting 6 18.9
2014-Oct-22 20:43 053 2 gusting 5 18.3
2014-Oct-22 20:30 088 17.8
2014-Oct-22 20:14 335 17.2
2014-Oct-22 19:58 349 17.8
2014-Oct-22 19:43 044 17.8
2014-Oct-22 19:28 032 18.3
2014-Oct-22 19:13 321 18.9
2014-Oct-22 18:58 058 6 gusting 11 20.0
2014-Oct-22 18:43 029 6 gusting 12 20.0
2014-Oct-22 18:28 066 4 gusting 9 20.6
2014-Oct-22 18:13 051 1 gusting 8 20.6
2014-Oct-22 18:00 089 2 gusting 4 21.1
2014-Oct-22 17:44 046 4 gusting 6 21.1
2014-Oct-22 16:43 354 2 gusting 9 23.3
2014-Oct-22 16:30 050 6 gusting 7 23.3
2014-Oct-22 15:44 045 2 gusting 12 23.3
2014-Oct-22 14:58 020 1 gusting 9 23.9
2014-Oct-22 14:30 018 23.9
2014-Oct-22 13:29 201 22.8
2014-Oct-22 13:14 155 0 gusting 4 22.8
2014-Oct-22 12:00 145 21.7
2014-Oct-22 10:59 107 20.0
2014-Oct-22 10:29 046 1 gusting 2 19.4
2014-Oct-22 09:30 271 18.3
2014-Oct-22 09:14 259 18.3
2014-Oct-22 08:59 281 18.3
2014-Oct-22 08:44 275 18.9
2014-Oct-22 08:29 186 18.3
2014-Oct-22 08:14 205 17.2
2014-Oct-22 07:58 205 16.7
2014-Oct-22 07:43 169 17.8
2014-Oct-22 07:28 124 17.2
2014-Oct-22 07:13 061 17.2
2014-Oct-22 06:59 128 17.2
2014-Oct-22 06:43 122 17.2
2014-Oct-22 06:30 089 16.7
2014-Oct-22 06:13 193 15.6
2014-Oct-22 05:58 140 16.1
2014-Oct-22 05:43 007 0 gusting 0 16.1
2014-Oct-22 05:30 019 1 gusting 3 17.2
2014-Oct-22 05:14 007 17.8
2014-Oct-22 04:58 342 17.8
2014-Oct-22 04:43 073 0 gusting 6 18.3
2014-Oct-22 04:27 065 18.3
2014-Oct-22 04:12 042 18.3
2014-Oct-22 03:58 081 18.3
2014-Oct-22 03:43 124 18.3
2014-Oct-22 03:28 121 18.9
2014-Oct-22 03:13 115 18.9
2014-Oct-22 03:00 079 18.9
2014-Oct-22 02:44 110 19.4
2014-Oct-22 02:28 113 20.0
2014-Oct-22 02:13 029 1 gusting 4 20.0
2014-Oct-22 01:58 036 1 gusting 5 19.4
2014-Oct-22 01:43 345 19.4
2014-Oct-22 01:28 335 20.0
2014-Oct-22 01:12 046 0 gusting 4 20.0
2014-Oct-22 00:58 327 21.1
2014-Oct-22 00:43 295 20.6
2014-Oct-22 00:30 319 20.6
2014-Oct-21 23:58 317 20.6
2014-Oct-21 23:42 259 20.6
2014-Oct-21 23:28 269 0 gusting 3 21.1
2014-Oct-21 23:13 269 3 gusting 5 21.1
2014-Oct-21 22:58 294 21.1
2014-Oct-21 22:42 250 21.1
2014-Oct-21 22:28 305 21.7
2014-Oct-21 22:13 257 0 gusting 5 21.7
2014-Oct-21 22:00 257 0 gusting 4 21.7
2014-Oct-21 21:28 279 3 gusting 9 22.2
2014-Oct-21 21:13 302 2 gusting 7 21.7